Home > Weather > Qadian > Past weeks

Flag for India Past Weather in Qadian, Punjab, India — Yesterday and Last 2 Weeks

Now
75 °F

Thunderstorms. More clouds than sun.


Feels Like: 73 °F
Forecast: 77 / 96 °F
Wind: 5 mph from Northeast

Location: Amritsar Airport

Current Time: Aug 27, 2016 at 3:36:42 PM

Latest Report: Aug 27, 2016 at 3:00 PM


Visibility: 2 mi

Pressure: 29.77 "Hg

Humidity: 100%

Dew Point: 75 °F

Location of QadianLocation

Past Weather in Qadian — Graph

°F

Qadian Temperature Yesterday

Maximum temperature yesterday: 93 °F (at 1:30 PM)
Minimum temperature yesterday: 77 °F (at 12:30 AM)
Average temperature yesterday: 85 °F

High & Low Weather Summary for the Past Weeks

 TemperatureHumidityPressure
High95 °F (Aug 13, 3:00 PM)100% (Aug 12, 8:00 PM)29.86 "Hg (Aug 12, 8:00 PM)
Low73 °F (Aug 24, 4:30 PM)50% (Aug 19, 4:00 PM)29.42 "Hg (Aug 16, 6:00 PM)
Average85 °F90%29.60 "Hg
* Reported Aug 12 2:30 PM — Aug 27 2:30 PM, Qadian, Weather by CustomWeather, © 2016

Note: Actual official high and low records may vary slightly from our data, if they occured in-between our weather recording intervals... More about our weather records

Advertising

Qadian Weather History for the Previous 24 Hours

Scroll right to see more
 ConditionsComfort  
Time TempWeatherWind HumidityBarometerVisibility
2:30 PM
Sat, Aug 27
75 °FThunderstorms. More clouds than sun.2 mph100%29.80 "Hg1 mi
2:00 PM75 °FThunderstorms. More clouds than sun.2 mph100%29.80 "Hg1 mi
1:30 PM75 °FThunderstorms. More clouds than sun.2 mph100%29.80 "Hg1 mi
1:00 PM75 °FThunderstorms. More clouds than sun.3 mph100%29.80 "Hg1 mi
12:30 PM77 °FThunderstorms. More clouds than sun.7 mph100%29.83 "Hg1 mi
12:00 PM77 °FThunderstorms. More clouds than sun.9 mph100%29.83 "Hg1 mi
11:30 AM77 °FThunderstorms. More clouds than sun.7 mph100%29.86 "Hg1 mi
11:00 AM75 °FThunderstorms. More clouds than sun.10 mph100%29.83 "Hg1 mi
10:30 AM77 °FThunderstorms. More clouds than sun.1 mph100%29.83 "Hg1 mi
10:00 AM77 °FThunderstorms. More clouds than sun.7 mph100%29.83 "Hg1 mi
9:30 AM77 °FThunderstorms. More clouds than sun.6 mph100%29.83 "Hg1 mi
9:00 AM79 °FThunderstorms. More clouds than sun.No wind100%29.83 "Hg1 mi
8:30 AM79 °FThunderstorms. More clouds than sun.No wind100%29.80 "Hg1 mi
8:00 AM79 °FThunderstorms. More clouds than sun.2 mph100%29.80 "Hg1 mi
7:00 AM81 °FThunderstorms. Broken clouds.5 mph100%29.77 "Hg1 mi
6:30 AM81 °FThunderstorms. Partly cloudy.3 mph100%29.77 "Hg1 mi
5:30 AM82 °FThunderstorms. Partly cloudy.6 mph100%29.74 "Hg1 mi
3:30 AM82 °FFog.No wind100%29.74 "Hg2 mi
3:00 AM82 °FFog.No wind100%29.74 "Hg2 mi
2:30 AM82 °FFog.No wind100%29.74 "Hg2 mi
2:00 AM82 °FFog.No wind100%29.74 "Hg2 mi
1:30 AM82 °FFog.No wind100%29.74 "Hg2 mi
1:00 AM84 °FFog.No wind100%29.74 "Hg2 mi
12:30 AM84 °FFog.No wind100%29.74 "Hg2 mi
12:00 AM84 °FFog.No wind100%29.74 "Hg2 mi
11:30 PM
Fri, Aug 26
84 °FFog.No wind100%29.71 "Hg2 mi
11:00 PM84 °FFog.No wind100%29.71 "Hg2 mi
10:30 PM84 °FFog.No wind100%29.71 "Hg2 mi
10:00 PM84 °FFog.No wind100%29.71 "Hg2 mi
9:30 PM86 °FFog.No wind100%29.71 "Hg2 mi
9:00 PM86 °FFog.No wind100%29.68 "Hg2 mi
8:30 PM86 °FFog.No wind100%29.68 "Hg2 mi
8:00 PM86 °FFog.No wind100%29.68 "Hg2 mi
7:30 PM88 °FFog.No wind100%29.68 "Hg3 mi
7:00 PM90 °FFog.2 mph79%29.65 "Hg3 mi
6:30 PM90 °FFog.No wind75%29.65 "Hg3 mi
6:00 PM91 °FScattered clouds.3 mph71%29.65 "Hg4 mi
5:30 PM91 °FScattered clouds.5 mph71%29.65 "Hg4 mi
5:00 PM91 °FScattered clouds.6 mph71%29.65 "Hg4 mi
4:30 PM91 °FScattered clouds.5 mph71%29.68 "Hg4 mi
3:00 PM91 °FScattered clouds.7 mph71%29.68 "Hg4 mi
Weather by CustomWeather, © 2016

See weather overviewHow to use our weather pages